Showing default

IRIDIUM 126, 42809

Orbit data source: Space-Track

IRIDIUM 126, 42809 is a payload satellite owned by Iridium (US) in LEO that was launched on Sun, 25 Jun 2017 UTC via an FALCON 9 launch vehicle from the Air Force Western Test Range (AFWTR). Payload-class satellites include a variety of spacecraft equipped with specific instruments for various scientific and technological missions. These include communications satellites like Starlink; space stations such as the ISS; scientific satellites like the Hubble; Earth observation satellites from companies like Planet Labs, Umbra, and HawkEye 360; GPS; miniature CubeSats for education and research; and military/defense satellites.

Loading next visibility...
Identifier
42809, 2017-039G
Orbit
LEO
Country
Flag of USUS
Related business
Manufacturer
OATK SSG Gilbert
Mission
Operational Commercial Communications
Bus & Motor
ELITEBUS, Unknown motor
Mass
860 kg wet, 700 kg dry
Launch date (UTC)
2017-06-25 (9 years ago)
Launch vehicle
FALCON 9
Launch site
Air Force Western Test Range (AFWTR)
Object type
Payload
Rocket body
Debris
Shape & HBR
Trap Box + 2 Pan, 4.8 m
Radar Cross Section
10.154 m², Large (>1 m²)

Expand to show TLE details & history
Last TLE update: 2 days ago

TLE from 2 days ago
0 IRIDIUM 126
1 42809U 17039G   26171.21845740  .00000186  00000-0  59351-4 0  9993
2 42809  86.3973 352.3763 0002201  87.4579 272.6868 14.34217921470380
Epoch: 2026-06-20T05:14Z
TLE epoch observation values (Epoch: 2026-06-20T05:14:34.719Z)
Latitude
-0.00009°
Longitude
5.2954°
Altitude
780.644 km
Speed
7.464 km/s
True Right ascension
23h 29m 30s
True Declination
0° 00' 00"
Sunlit
Object was in daylight at epoch
Visualization orbit readout
Latitude
Unknown
Longitude
Unknown
Altitude
Unknown
Speed
Unknown
Apparent Right ascension
Unknown
Apparent Declination
Unknown
Sunlit
N/A
Visualization observer readout
Local Sidereal Time
21:38:10
Azimuth
Unknown
Elevation
Unknown
Doppler factor
Unknown
Orbital elements
Apogee altitude
776.205 km
Perigee altitude
773.057 km
Semi-major axis
7,152.768 km
Eccentricity
0.00022
Inclination
86.3973°
RAAN
352.3763°
Arg. of periapsis
87.4579°
True anomaly
272.66161°
Mean anomaly
272.6868°
Eccentric anomaly
272.6742°
Mean motion
3.58783 °/min
Orbital period
100.34 mins
BSTAR
0.000059351
Loading maneuver chart data...
Computing Atmospheric mass density...
Loading historical data...
Loading historical data...
Loading historical data...
Loading historical data...
Loading historical data...
Loading historical data...
Loading historical data...

Documentation

Showing up to 5 results
|